Wind_Speed
22 21 21 21 19 18 18 19 20 20 19 18 18 20 20 20 19 19 19 20 20 21 21 20 20 20 20 18 18 18 17 17 17 17 18 18 18 17 17 17 18 19 19 19
23 23 24 23 21 20 20 21 22 21 20 20 20 21 21 21 22 22 20 21 21 21 21 21 20 21 21 20 20 20 19 19 20 20 19 19 19 18 19 19 20 21 21 21
23 24 24 24 23 23 23 23 23 22 21 22 22 22 23 24 24 23 23 23 22 21 21 22 22 21 21 22 22 21 20 20 21 21 20 20 20 20 20 21 22 22 22 22
24 24 25 25 25 26 25 24 24 24 24 23 23 23 24 24 25 26 25 24 23 22 21 21 22 22 22 23 23 23 23 22 22 22 22 21 21 21 22 23 22 22 22 23
24 25 25 24 24 26 26 26 25 26 26 25 25 25 25 25 25 25 25 24 23 23 23 23 23 23 23 24 25 25 24 24 23 22 22 22 22 23 23 23 23 23 23 24
25 26 25 23 23 25 26 27 26 27 28 27 26 26 25 25 26 25 25 24 24 24 24 24 24 24 24 25 25 25 25 25 24 24 24 24 25 25 25 25 24 24 24 24
24 24 24 23 23 24 25 25 25 26 27 27 27 26 26 25 25 26 26 25 25 25 25 25 24 24 24 25 25 26 26 25 25 25 25 25 25 25 25 25 25 25 25 24
24 24 23 22 23 24 25 24 24 24 25 25 26 27 28 27 27 26 25 24 24 25 26 26 25 25 25 25 25 26 26 26 27 26 26 26 25 26 26 26 26 25 24 24
25 25 24 23 23 24 25 24 23 23 23 24 25 26 26 26 26 26 26 25 26 26 26 27 27 26 26 26 26 26 26 27 28 26 26 27 27 27 26 26 26 25 25 25
25 24 24 23 24 24 25 24 24 23 23 23 24 25 26 26 25 26 26 26 27 27 27 26 27 27 27 26 26 26 26 27 26 26 26 27 27 25 24 24 24 24 25 25
25 24 23 22 23 23 24 24 24 24 23 24 25 25 25 25 25 26 27 27 27 27 27 27 27 27 27 27 27 27 27 27 27 27 26 26 26 25 24 23 23 24 24 24
24 23 22 21 21 22 23 23 23 24 24 25 25 25 25 26 26 27 27 27 28 27 27 27 27 28 28 28 28 28 27 27 27 27 27 25 25 25 24 24 25 25 25 25
24 23 23 22 22 22 22 23 24 24 25 26 27 26 27 26 25 26 27 27 28 27 27 27 27 28 28 28 28 27 27 27 26 26 26 25 25 25 24 25 25 25 25 26
24 24 23 23 23 23 23 23 24 24 25 26 26 26 26 25 26 26 27 27 27 27 27 28 28 28 28 28 28 28 27 26 26 25 25 25 25 25 25 25 25 25 26 26
24 24 23 23 23 23 23 23 23 24 24 24 25 24 24 25 25 26 26 26 27 27 27 28 28 28 28 28 28 27 26 26 25 24 25 25 25 25 25 25 25 25 26 27
25 25 24 23 23 23 24 23 23 23 24 24 23 23 24 24 24 25 26 27 27 26 26 26 27 27 28 27 26 26 26 26 25 25 25 25 25 25 24 25 25 25 25 26
24 24 24 23 23 23 24 24 23 23 24 23 23 23 24 24 24 25 26 27 27 26 26 26 25 25 25 25 25 25 26 26 25 25 25 26 26 26 26 26 26 26 27 27
23 22 22 22 22 22 23 24 24 24 24 24 23 24 24 25 25 25 26 26 26 26 26 26 25 25 25 24 24 24 24 25 25 26 26 27 26 26 26 26 26 27 27 27
22 22 22 22 22 22 23 23 23 23 24 24 24 24 24 24 24 24 24 25 25 25 25 26 26 25 25 24 24 24 25 25 25 26 27 27 28 28 27 27 27 27 27 27
21 22 22 23 23 22 22 23 23 23 23 24 24 25 24 24 24 25 25 25 25 25 25 25 25 25 25 25 25 25 25 25 25 26 26 26 26 27 27 26 26 26 26 27
21 21 22 22 22 22 22 23 23 23 24 24 25 25 25 24 24 25 25 25 25 25 26 25 25 24 24 24 24 24 24 24 25 25 25 25 25 25 26 26 25 25 25 26
20 21 21 21 22 22 23 23 23 24 24 25 25 25 25 25 25 25 25 25 24 25 24 24 24 24 24 23 23 23 23 23 24 24 24 24 24 24 24 24 24 24 24 25
20 20 21 21 22 23 23 24 24 24 24 25 25 25 25 25 25 25 24 23 23 23 23 22 23 23 23 23 23 23 24 23 23 23 23 24 24 24 23 23 23 24 25 26
20 21 21 21 22 22 23 23 24 24 24 25 25 25 25 25 25 24 23 23 23 22 21 22 22 23 23 23 24 24 24 24 23 23 24 24 23 23 22 22 23 24 25 26
20 20 20 21 21 22 22 23 23 23 23 24 25 25 25 25 25 25 24 22 22 21 21 22 22 22 23 23 24 24 23 23 23 23 23 23 23 23 23 23 24 25 26 27
19 19 20 20 20 21 21 22 22 22 23 23 23 23 23 23 23 23 22 21 21 22 22 22 22 23 23 23 22 23 23 22 22 23 23 22 23 23 24 24 25 26 28 29
18 18 19 19 19 20 20 20 20 20 20 20 20 20 21 21 21 21 21 21 22 22 23 23 23 23 23 22 22 22 22 22 23 23 23 23 23 24 25 25 26 28 29 30
Wind_Direction
244 246 250 254 254 255 257 261 267 271 274 276 275 277 280 281 284 284 284 284 285 290 295 296 296 294 294 292 293 292 292 293 291 288 287 287 287 285 283 283 284 284 286 286
245 247 250 252 252 256 257 257 263 268 271 272 275 276 277 277 279 281 282 283 284 288 292 293 293 293 292 292 290 289 290 290 290 288 287 286 285 283 283 283 283 283 285 286
247 247 248 249 250 252 256 261 266 268 270 272 271 271 275 274 274 277 280 282 284 287 288 289 290 289 290 290 289 287 286 285 287 287 287 286 284 284 285 284 283 281 284 284
248 249 249 252 253 256 257 259 262 265 269 271 270 270 273 273 275 276 276 280 285 287 286 287 289 288 289 287 288 288 289 288 287 287 286 285 285 286 286 285 282 281 283 284
250 252 255 254 253 254 257 258 262 265 267 270 271 271 272 274 274 275 276 278 281 285 287 287 289 288 288 288 288 288 287 287 287 288 285 284 284 285 286 285 283 280 281 282
254 256 258 258 256 257 260 262 262 264 267 268 270 270 273 274 273 275 278 279 280 282 284 286 287 287 287 288 289 289 288 287 286 287 284 283 283 283 285 286 285 283 282 280
255 257 259 259 258 260 262 266 265 267 268 269 272 274 275 275 273 274 277 279 281 284 285 286 286 287 286 287 289 289 290 287 285 286 286 282 281 281 282 283 284 283 283 282
255 257 259 262 260 260 266 267 269 270 269 271 273 275 277 277 277 277 278 280 283 285 287 286 285 285 286 287 288 289 288 289 289 287 287 284 282 283 283 281 282 282 281 281
257 259 262 263 263 264 266 267 270 272 273 273 275 276 279 279 279 278 281 282 283 284 284 284 283 284 286 286 286 288 289 290 289 287 287 285 285 284 282 282 280 279 280 282
257 260 262 264 264 266 266 268 269 271 274 276 279 280 280 280 280 279 280 282 283 282 282 282 283 283 285 285 285 286 287 289 289 287 286 284 284 283 283 283 282 282 283 283
259 262 263 266 265 264 266 269 273 275 275 280 280 283 281 282 282 281 281 282 282 281 280 282 282 282 282 282 283 284 284 286 287 288 288 287 285 286 286 285 284 284 284 284
260 263 265 267 267 265 267 269 273 276 278 280 282 283 285 286 283 281 281 281 281 280 280 281 281 281 281 281 283 283 283 285 286 287 287 285 285 285 287 288 288 287 287 287
259 262 264 266 268 270 272 274 275 278 282 281 281 282 283 283 282 281 280 280 281 280 281 281 282 281 280 281 283 285 285 285 284 284 284 283 284 285 287 289 288 287 288 289
257 260 263 267 271 273 275 276 277 279 282 282 282 283 284 282 280 280 280 281 281 281 281 281 282 282 280 282 283 285 285 283 283 282 281 283 284 285 287 289 288 288 288 289
259 263 267 270 272 273 275 276 277 279 282 283 284 284 284 283 282 281 281 282 283 282 282 282 283 282 281 281 283 283 283 282 282 281 281 283 285 285 286 287 288 290 290 290
261 264 266 268 270 271 273 274 276 279 283 285 287 288 289 287 285 284 283 283 284 284 284 284 283 283 283 283 283 281 280 281 282 280 280 281 283 284 284 286 289 291 292 292
260 262 263 265 268 272 273 274 276 281 285 285 287 288 290 290 288 285 284 283 283 283 284 284 284 285 285 286 285 282 281 282 283 281 280 280 281 283 283 284 286 288 290 290
260 260 262 265 269 270 271 273 276 279 283 284 285 286 288 289 288 286 285 282 283 284 285 286 287 287 287 287 286 285 284 284 284 283 282 281 281 282 283 283 285 288 289 289
259 261 263 267 270 272 272 273 274 277 281 282 285 285 287 289 288 287 286 286 286 285 287 288 287 287 286 286 287 286 286 286 285 285 283 282 281 282 281 283 286 287 288 290
258 262 265 267 269 271 272 273 274 278 280 282 285 285 287 289 290 289 288 288 287 286 287 288 287 286 286 286 286 286 286 287 287 287 285 284 284 286 284 285 286 287 288 289
258 261 265 268 270 271 273 274 276 279 281 283 285 286 287 289 290 290 290 288 287 288 289 288 287 287 287 288 287 288 289 289 289 291 289 286 287 287 287 287 288 288 288 288
261 263 266 269 271 272 273 276 279 281 282 283 285 286 286 287 290 291 291 291 289 289 289 288 287 288 288 288 289 290 290 290 290 291 290 290 290 288 287 288 289 289 292 294
263 266 268 270 272 273 274 276 279 281 282 283 284 285 286 285 288 289 290 292 292 290 288 287 287 288 287 288 288 288 289 289 289 290 290 290 289 289 288 288 289 290 292 296
265 267 269 271 273 275 276 278 280 281 282 283 283 284 285 287 287 288 290 293 293 291 289 287 287 288 289 289 288 289 289 289 288 287 285 286 286 288 288 288 290 293 294 295
263 266 268 270 273 276 279 281 282 282 283 283 284 284 285 287 288 290 291 291 291 290 289 289 289 289 289 289 289 289 290 289 288 286 285 286 287 286 288 291 293 296 298 300
262 267 271 274 276 278 280 281 282 283 284 284 283 283 285 287 289 290 289 289 290 290 290 290 292 293 293 292 291 292 292 291 289 289 287 287 287 288 290 293 297 298 299 300
265 269 273 274 277 279 280 282 284 286 287 288 287 286 287 287 288 288 289 290 291 291 292 292 293 294 292 292 293 295 296 293 289 286 286 287 288 290 294 297 298 299 300 301
Height
5880 5881 5882 5883 5884 5884 5883 5883 5883 5883 5883 5883 5882 5882 5881 5880 5880 5879 5879 5878 5877 5876 5874 5873 5872 5871 5870 5869 5867 5866 5864 5863 5862 5861 5859 5858 5857 5856 5855 5854 5853 5852 5851 5850
5875 5876 5876 5877 5878 5878 5878 5877 5877 5878 5878 5878 5877 5876 5875 5874 5874 5874 5874 5873 5872 5870 5869 5868 5866 5865 5864 5863 5862 5861 5859 5858 5856 5855 5854 5853 5852 5851 5849 5848 5847 5846 5845 5844
5869 5870 5870 5872 5872 5872 5872 5872 5872 5872 5872 5872 5871 5871 5870 5869 5868 5868 5868 5868 5867 5865 5864 5863 5862 5860 5858 5857 5856 5855 5853 5852 5851 5849 5848 5847 5846 5845 5843 5842 5841 5840 5838 5837
5862 5864 5864 5868 5866 5866 5866 5866 5866 5866 5866 5866 5866 5865 5864 5863 5862 5862 5862 5862 5861 5860 5859 5857 5856 5855 5853 5851 5850 5849 5847 5846 5845 5843 5842 5841 5839 5838 5837 5836 5834 5833 5832 5831
5856 5856 5857 5860 5859 5859 5859 5860 5860 5860 5860 5859 5859 5858 5858 5858 5856 5855 5855 5855 5854 5854 5853 5852 5850 5848 5847 5845 5843 5842 5841 5839 5838 5836 5835 5834 5832 5831 5830 5828 5827 5826 5824 5823
5849 5850 5851 5853 5853 5852 5853 5853 5854 5853 5853 5853 5853 5852 5852 5851 5850 5849 5848 5849 5848 5847 5846 5845 5843 5841 5840 5838 5837 5835 5833 5831 5830 5829 5827 5826 5825 5823 5822 5820 5819 5817 5816 5814
5843 5843 5844 5846 5846 5847 5847 5848 5847 5846 5846 5846 5845 5845 5845 5843 5842 5842 5841 5841 5840 5839 5838 5837 5836 5834 5833 5831 5829 5827 5825 5823 5822 5821 5819 5818 5817 5815 5814 5812 5811 5809 5808 5807
5836 5837 5839 5839 5840 5841 5840 5840 5840 5839 5839 5838 5838 5838 5837 5835 5834 5834 5833 5833 5832 5832 5831 5829 5828 5827 5826 5824 5823 5820 5818 5816 5815 5813 5812 5810 5809 5807 5806 5804 5802 5801 5800 5799
5830 5832 5832 5832 5833 5833 5833 5833 5832 5832 5832 5831 5831 5831 5830 5829 5827 5827 5826 5826 5825 5824 5823 5822 5821 5820 5818 5817 5815 5813 5811 5809 5807 5805 5804 5802 5800 5799 5798 5796 5795 5793 5792 5791
5823 5823 5825 5826 5826 5826 5826 5826 5825 5825 5826 5825 5825 5824 5823 5821 5820 5820 5819 5818 5817 5816 5815 5814 5813 5812 5810 5809 5807 5805 5804 5802 5799 5798 5796 5794 5792 5791 5790 5788 5787 5785 5784 5783
5816 5817 5818 5819 5819 5819 5819 5818 5819 5819 5819 5819 5818 5817 5815 5814 5812 5812 5811 5810 5809 5808 5807 5806 5805 5803 5802 5800 5799 5797 5796 5794 5792 5791 5789 5787 5785 5784 5782 5781 5779 5778 5776 5775
5810 5811 5812 5813 5812 5812 5812 5812 5812 5812 5812 5812 5811 5809 5808 5806 5804 5803 5802 5801 5800 5799 5798 5797 5796 5795 5794 5792 5790 5789 5787 5786 5784 5783 5781 5780 5778 5776 5774 5773 5772 5770 5768 5767
5804 5805 5805 5806 5806 5806 5806 5806 5805 5805 5805 5804 5803 5801 5799 5797 5796 5795 5793 5793 5791 5790 5790 5789 5788 5786 5785 5783 5782 5780 5779 5778 5776 5775 5773 5772 5770 5769 5768 5766 5764 5762 5760 5758
5797 5798 5799 5799 5799 5799 5799 5799 5799 5798 5797 5796 5795 5793 5791 5789 5788 5786 5785 5784 5783 5782 5781 5780 5779 5777 5776 5774 5773 5772 5771 5769 5768 5767 5765 5764 5763 5761 5760 5758 5757 5754 5752 5750
5791 5791 5792 5792 5792 5792 5792 5792 5792 5792 5791 5789 5787 5785 5783 5782 5780 5778 5777 5776 5775 5774 5773 5771 5770 5769 5767 5766 5764 5763 5762 5761 5759 5758 5757 5756 5755 5753 5752 5750 5748 5746 5744 5742
5784 5785 5785 5785 5786 5786 5786 5786 5785 5785 5784 5782 5780 5778 5776 5774 5772 5771 5770 5768 5767 5766 5765 5763 5762 5760 5758 5757 5756 5755 5754 5753 5751 5751 5750 5748 5747 5745 5744 5743 5741 5739 5737 5734
5777 5778 5778 5779 5779 5779 5779 5779 5778 5778 5776 5775 5774 5772 5770 5768 5766 5764 5763 5761 5760 5759 5757 5756 5754 5753 5751 5750 5748 5747 5746 5745 5743 5742 5741 5740 5739 5738 5736 5735 5733 5731 5729 5726
5770 5771 5771 5772 5772 5772 5772 5772 5771 5771 5769 5768 5767 5765 5764 5761 5759 5758 5756 5754 5753 5751 5750 5749 5747 5745 5744 5743 5741 5740 5738 5737 5736 5735 5733 5732 5731 5730 5728 5726 5725 5723 5720 5718
5764 5764 5765 5765 5766 5766 5765 5765 5764 5764 5762 5761 5759 5758 5757 5754 5753 5751 5749 5747 5746 5744 5743 5741 5740 5738 5737 5736 5734 5733 5731 5730 5728 5727 5725 5724 5723 5721 5719 5718 5716 5714 5712 5709
5757 5758 5758 5759 5759 5759 5758 5758 5757 5756 5755 5754 5752 5751 5749 5748 5746 5744 5742 5740 5739 5737 5736 5734 5732 5731 5730 5728 5727 5725 5724 5722 5721 5719 5717 5715 5714 5713 5711 5709 5708 5706 5704 5701
5751 5751 5752 5752 5752 5752 5751 5751 5750 5749 5748 5747 5745 5744 5742 5740 5738 5736 5734 5733 5731 5729 5728 5726 5725 5723 5722 5721 5719 5718 5716 5714 5713 5711 5709 5708 5706 5705 5703 5701 5699 5697 5695 5693
5745 5745 5745 5745 5745 5745 5744 5743 5743 5742 5740 5739 5738 5736 5735 5733 5731 5729 5727 5726 5724 5722 5720 5719 5717 5716 5715 5713 5712 5710 5709 5707 5706 5704 5702 5700 5699 5697 5695 5693 5691 5689 5687 5685
5738 5739 5739 5739 5738 5738 5737 5736 5735 5734 5733 5732 5730 5729 5727 5726 5724 5722 5720 5718 5716 5715 5713 5711 5710 5709 5707 5706 5705 5703 5702 5700 5698 5697 5695 5693 5691 5689 5688 5686 5684 5682 5679 5676
5732 5732 5732 5732 5731 5731 5730 5729 5728 5727 5726 5725 5723 5721 5720 5718 5717 5715 5713 5711 5709 5708 5706 5705 5703 5702 5700 5699 5698 5696 5694 5692 5691 5689 5687 5685 5684 5682 5680 5678 5676 5674 5671 5669
5726 5726 5725 5725 5725 5724 5724 5722 5721 5720 5719 5718 5716 5714 5712 5711 5710 5708 5706 5705 5703 5701 5700 5698 5697 5695 5694 5692 5690 5688 5687 5685 5683 5681 5679 5678 5676 5674 5673 5671 5669 5666 5664 5661
5719 5720 5719 5719 5719 5718 5717 5716 5715 5714 5712 5710 5709 5707 5705 5704 5703 5701 5699 5698 5696 5694 5693 5691 5690 5688 5686 5685 5683 5681 5679 5677 5675 5674 5672 5670 5669 5667 5665 5663 5661 5658 5656 5652
5713 5713 5713 5713 5712 5712 5711 5710 5709 5707 5706 5704 5702 5700 5699 5697 5696 5694 5693 5691 5689 5688 5686 5684 5682 5681 5679 5677 5675 5674 5671 5670 5668 5667 5665 5663 5661 5660 5657 5655 5652 5650 5646 5643